StationID,Date,MaxTemp,MinTemp,Precipitation,Snowfall,SnowDepth
"CA002101062","1984-07-01",,,,0.00,
"CA002101062","1984-07-02",,,,0.00,
"CA002101062","1984-07-03",,,,0.00,
"CA002101062","1984-07-04",,,,0.00,
"CA002101062","1984-07-05",,,,0.00,
"CA002101062","1984-07-06",,,,0.00,
"CA002101062","1984-07-07",,,,0.00,
"CA002101062","1984-07-08",,,,0.00,
"CA002101062","1984-07-09",,,,0.00,
"CA002101062","1984-07-10",,,,0.00,
"CA002101062","1984-07-11",,,,0.00,
"CA002101062","1984-07-12",,,0.00,0.00,
"CA002101062","1984-07-13",72.50,39.20,2.00,0.00,
"CA002101062","1984-07-14",64.40,49.10,42.00,0.00,
"CA002101062","1984-07-15",66.20,51.80,6.00,0.00,
"CA002101062","1984-07-16",59.00,49.10,129.00,0.00,
"CA002101062","1984-07-17",67.10,41.00,0.00,0.00,
"CA002101062","1984-07-18",59.90,50.00,3.00,0.00,
"CA002101062","1984-07-19",66.20,49.10,18.00,0.00,
"CA002101062","1984-07-20",71.60,44.60,0.00,0.00,
"CA002101062","1984-07-21",60.80,49.10,161.00,0.00,
"CA002101062","1984-07-22",66.20,50.00,6.00,0.00,
"CA002101062","1984-07-23",71.60,48.20,0.00,0.00,
"CA002101062","1984-07-24",77.90,42.80,53.00,0.00,
"CA002101062","1984-07-25",71.60,45.50,0.00,0.00,
"CA002101062","1984-07-26",67.10,50.00,62.00,0.00,
"CA002101062","1984-07-27",63.50,48.20,38.00,0.00,
"CA002101062","1984-07-28",67.10,50.90,18.00,0.00,
"CA002101062","1984-07-29",68.90,41.00,34.00,0.00,
"CA002101062","1984-07-30",72.50,47.30,0.00,0.00,
"CA002101062","1984-07-31",77.00,41.00,0.00,0.00,
"CA002101062","1984-08-01",72.50,41.90,0.00,0.00,
"CA002101062","1984-08-02",79.70,48.20,0.00,0.00,
"CA002101062","1984-08-03",84.20,48.20,0.00,0.00,
"CA002101062","1984-08-04",78.80,55.40,8.00,0.00,
"CA002101062","1984-08-05",70.70,50.90,0.00,0.00,
"CA002101062","1984-08-06",74.30,41.90,0.00,0.00,
"CA002101062","1984-08-07",74.30,37.40,0.00,0.00,
"CA002101062","1984-08-08",75.20,35.60,0.00,0.00,
"CA002101062","1984-08-09",72.50,38.30,11.00,0.00,
"CA002101062","1984-08-10",61.70,43.70,10.00,0.00,
"CA002101062","1984-08-11",62.60,37.40,0.00,0.00,
"CA002101062","1984-08-12",57.20,30.20,0.00,0.00,
"CA002101062","1984-08-13",62.60,27.50,0.00,0.00,
"CA002101062","1984-08-14",62.60,28.40,0.00,0.00,
"CA002101062","1984-08-15",62.60,41.90,0.00,0.00,
"CA002101062","1984-08-16",71.60,47.30,0.00,0.00,
"CA002101062","1984-08-17",78.80,40.10,0.00,0.00,
"CA002101062","1984-08-18",77.00,36.50,0.00,0.00,
"CA002101062","1984-08-19",65.30,40.10,0.00,0.00,
"CA002101062","1984-08-20",64.40,42.80,0.00,0.00,
"CA002101062","1984-08-21",70.70,38.30,0.00,0.00,
"CA002101062","1984-08-22",71.60,31.10,0.00,0.00,
"CA002101062","1984-08-23",59.00,37.40,37.00,0.00,
"CA002101062","1984-08-24",59.90,39.20,48.00,0.00,
"CA002101062","1984-08-25",63.50,46.40,105.00,0.00,
"CA002101062","1984-08-26",47.30,36.50,0.00,0.00,
"CA002101062","1984-08-27",33.80,31.10,12.00,12.00,
"CA002101062","1984-08-28",41.90,28.40,21.00,21.00,
"CA002101062","1984-08-29",42.80,29.30,0.00,0.00,
"CA002101062","1984-08-30",49.10,32.00,0.00,0.00,
"CA002101062","1984-08-31",58.10,25.70,0.00,0.00,
"CA002101062","1984-09-01",52.70,23.00,0.00,0.00,
"CA002101062","1984-09-02",55.40,33.80,36.00,0.00,
"CA002101062","1984-09-03",52.70,33.80,0.00,0.00,
"CA002101062","1984-09-04",62.60,38.30,0.00,0.00,
"CA002101062","1984-09-05",48.20,37.40,0.00,0.00,
"CA002101062","1984-09-06",45.50,35.60,36.00,0.00,
"CA002101062","1984-09-07",54.50,40.10,0.00,0.00,
"CA002101062","1984-09-08",60.80,30.20,0.00,0.00,
"CA002101062","1984-09-09",63.50,28.40,0.00,0.00,
"CA002101062","1984-09-10",58.10,25.70,0.00,0.00,
"CA002101062","1984-09-11",58.10,24.80,0.00,0.00,
"CA002101062","1984-09-12",58.10,25.70,0.00,0.00,
"CA002101062","1984-09-13",59.00,27.50,0.00,0.00,
"CA002101062","1984-09-14",61.70,30.20,0.00,0.00,
"CA002101062","1984-09-15",59.90,37.40,0.00,0.00,
"CA002101062","1984-09-16",59.00,30.20,0.00,0.00,
"CA002101062","1984-09-17",58.10,37.40,0.00,0.00,
"CA002101062","1984-09-18",59.00,35.60,0.00,0.00,
"CA002101062","1984-09-19",54.50,27.50,0.00,0.00,
"CA002101062","1984-09-20",54.50,28.40,0.00,0.00,
"CA002101062","1984-09-21",54.50,25.70,0.00,0.00,
"CA002101062","1984-09-22",52.70,23.00,0.00,0.00,
"CA002101062","1984-09-23",53.60,21.20,0.00,0.00,
"CA002101062","1984-09-24",57.20,20.30,0.00,0.00,
"CA002101062","1984-09-25",57.20,21.20,0.00,0.00,
"CA002101062","1984-09-26",54.50,30.20,0.00,0.00,
"CA002101062","1984-09-27",52.70,26.60,0.00,0.00,
"CA002101062","1984-09-28",50.00,22.10,0.00,0.00,
"CA002101062","1984-09-29",49.10,35.60,0.00,0.00,
"CA002101062","1984-09-30",51.80,36.50,0.00,0.00,
"CA002101062","1984-10-01",39.20,30.20,55.00,0.00,
"CA002101062","1984-10-02",42.80,33.80,0.00,0.00,
"CA002101062","1984-10-03",43.70,30.20,0.00,0.00,
"CA002101062","1984-10-04",44.60,27.50,0.00,0.00,
"CA002101062","1984-10-05",42.80,20.30,0.00,0.00,
"CA002101062","1984-10-06",56.30,37.40,0.00,0.00,
"CA002101062","1984-10-07",48.20,37.40,30.00,0.00,
"CA002101062","1984-10-08",47.30,33.80,50.00,0.00,
"CA002101062","1984-10-09",42.80,38.30,0.00,0.00,
"CA002101062","1984-10-10",34.70,31.10,0.00,0.00,
"CA002101062","1984-10-11",47.30,32.90,0.00,0.00,
"CA002101062","1984-10-12",40.10,27.50,0.00,0.00,
"CA002101062","1984-10-13",32.00,23.90,0.00,0.00,
"CA002101062","1984-10-14",37.40,23.00,0.00,0.00,
"CA002101062","1984-10-15",33.80,26.60,0.00,0.00,
"CA002101062","1984-10-16",32.90,21.20,0.00,0.00,
"CA002101062","1984-10-17",23.00,4.10,0.00,0.00,
"CA002101062","1984-10-18",20.30,1.40,0.00,0.00,
"CA002101062","1984-10-19",19.40,9.50,0.00,0.00,
"CA002101062","1984-10-20",29.30,13.10,0.00,0.00,
"CA002101062","1984-10-21",33.80,13.10,0.00,0.00,
"CA002101062","1984-10-22",39.20,31.10,0.00,0.00,
"CA002101062","1984-10-23",37.40,32.90,34.00,34.00,
"CA002101062","1984-10-24",33.80,24.80,0.00,0.00,30.00
"CA002101062","1984-10-25",23.00,10.40,0.00,0.00,
"CA002101062","1984-10-26",-0.40,-9.40,0.00,0.00,
"CA002101062","1984-10-27",-0.40,-8.50,0.00,0.00,
"CA002101062","1984-10-28",14.00,-13.00,0.00,0.00,
"CA002101062","1984-10-29",-4.00,-22.00,0.00,0.00,
"CA002101062","1984-10-30",-5.80,-25.60,0.00,0.00,
"CA002101062","1984-10-31",-5.80,-25.60,0.00,0.00,
"CA002101062","1984-11-01",-9.40,-22.00,0.00,0.00,
"CA002101062","1984-11-02",-18.40,-30.10,0.00,0.00,
"CA002101062","1984-11-03",-11.20,-27.40,0.00,0.00,
"CA002101062","1984-11-04",1.40,-16.60,0.00,0.00,
"CA002101062","1984-11-05",15.80,-4.90,24.00,24.00,
"CA002101062","1984-11-06",15.80,3.20,12.00,12.00,
"CA002101062","1984-11-07",14.00,12.20,0.00,0.00,
"CA002101062","1984-11-08",11.30,5.90,14.00,14.00,
"CA002101062","1984-11-09",12.20,10.40,46.00,46.00,
"CA002101062","1984-11-10",14.00,9.50,42.00,42.00,
"CA002101062","1984-11-11",3.20,-18.40,18.00,18.00,
"CA002101062","1984-11-12",1.40,-9.40,10.00,10.00,
"CA002101062","1984-11-13",-13.00,-23.80,0.00,0.00,
"CA002101062","1984-11-14",-17.50,-31.90,0.00,0.00,
"CA002101062","1984-11-15",-8.50,-34.60,44.00,44.00,
"CA002101062","1984-11-16",5.00,-13.90,20.00,20.00,
"CA002101062","1984-11-17",5.00,-5.80,20.00,20.00,
"CA002101062","1984-11-18",10.40,5.00,10.00,10.00,
"CA002101062","1984-11-19",14.90,6.80,0.00,0.00,
"CA002101062","1984-11-20",32.90,12.20,0.00,0.00,
"CA002101062","1984-11-21",39.20,13.10,0.00,0.00,
"CA002101062","1984-11-22",22.10,19.40,38.00,38.00,
"CA002101062","1984-11-23",23.90,18.50,0.00,0.00,
"CA002101062","1984-11-24",18.50,14.90,0.00,0.00,
"CA002101062","1984-11-25",14.00,12.20,12.00,12.00,
"CA002101062","1984-11-26",5.90,-4.90,10.00,10.00,
"CA002101062","1984-11-27",1.40,-9.40,0.00,0.00,
"CA002101062","1984-11-28",1.40,-6.70,10.00,10.00,
"CA002101062","1984-11-29",-1.30,-5.80,0.00,0.00,
"CA002101062","1984-11-30",-7.60,-14.80,0.00,0.00,
"CA002101062","1984-12-01",-7.60,-22.00,0.00,0.00,
"CA002101062","1984-12-02",-9.40,-25.60,0.00,0.00,
"CA002101062","1984-12-03",1.40,-13.90,0.00,0.00,
"CA002101062","1984-12-04",5.00,-7.60,0.00,0.00,
"CA002101062","1984-12-05",5.90,-4.90,0.00,0.00,
"CA002101062","1984-12-06",5.00,-10.30,0.00,0.00,
"CA002101062","1984-12-07",7.70,1.40,30.00,30.00,
"CA002101062","1984-12-08",10.40,-4.00,45.00,45.00,
"CA002101062","1984-12-09",1.40,-25.60,0.00,0.00,
"CA002101062","1984-12-10",-22.90,-40.00,0.00,0.00,
"CA002101062","1984-12-11",-6.70,-35.50,0.00,0.00,
"CA002101062","1984-12-12",-9.40,-29.20,0.00,0.00,
"CA002101062","1984-12-13",-20.20,-35.50,0.00,0.00,
"CA002101062","1984-12-14",-38.20,-43.60,0.00,0.00,
"CA002101062","1984-12-15",-22.00,-45.40,20.00,20.00,
"CA002101062","1984-12-16",-6.70,-29.20,45.00,45.00,
"CA002101062","1984-12-17",1.40,-13.90,0.00,0.00,
"CA002101062","1984-12-18",15.80,-2.20,103.00,103.00,
"CA002101062","1984-12-19",15.80,-4.90,0.00,0.00,
"CA002101062","1984-12-20",-18.40,-30.10,0.00,0.00,
"CA002101062","1984-12-21",-21.10,-30.10,0.00,0.00,
"CA002101062","1984-12-22",-15.70,-22.90,10.00,10.00,
"CA002101062","1984-12-23",-10.30,-19.30,76.00,76.00,
"CA002101062","1984-12-24",-6.70,-22.00,0.00,0.00,
"CA002101062","1984-12-25",-11.20,-28.30,15.00,15.00,
"CA002101062","1984-12-26",-11.20,-22.00,0.00,0.00,
"CA002101062","1984-12-27",-32.80,-39.10,0.00,0.00,
"CA002101062","1984-12-28",-43.60,-47.20,0.00,0.00,
"CA002101062","1984-12-29",-30.10,-51.70,0.00,0.00,
"CA002101062","1984-12-30",-22.00,-37.30,0.00,0.00,
"CA002101062","1984-12-31",-12.10,-29.20,0.00,0.00,
"CA002101062","1985-01-01",5.90,-14.80,0.00,0.00,
"CA002101062","1985-01-02",13.10,-2.20,35.00,35.00,
"CA002101062","1985-01-03",11.30,2.30,30.00,30.00,
"CA002101062","1985-01-04",14.90,5.00,15.00,15.00,
"CA002101062","1985-01-05",5.90,-8.50,0.00,0.00,
"CA002101062","1985-01-06",-1.30,-15.70,0.00,0.00,
"CA002101062","1985-01-07",4.10,-7.60,0.00,0.00,
"CA002101062","1985-01-08",14.90,-6.70,0.00,0.00,
"CA002101062","1985-01-09",14.90,2.30,0.00,0.00,
"CA002101062","1985-01-10",9.50,-2.20,20.00,20.00,
"CA002101062","1985-01-11",22.10,-2.20,10.00,10.00,
"CA002101062","1985-01-12",23.00,9.50,0.00,0.00,
"CA002101062","1985-01-13",15.80,5.00,25.00,25.00,
"CA002101062","1985-01-14",14.00,11.30,20.00,20.00,
"CA002101062","1985-01-15",13.10,10.40,0.00,0.00,
"CA002101062","1985-01-16",14.00,5.00,55.00,55.00,
"CA002101062","1985-01-17",7.70,0.50,0.00,0.00,
"CA002101062","1985-01-18",14.00,2.30,0.00,0.00,
"CA002101062","1985-01-19",16.70,8.60,0.00,0.00,
"CA002101062","1985-01-20",17.60,12.20,20.00,20.00,
"CA002101062","1985-01-21",18.50,12.20,25.00,25.00,
"CA002101062","1985-01-22",28.40,15.80,0.00,0.00,
"CA002101062","1985-01-23",29.30,13.10,0.00,0.00,
"CA002101062","1985-01-24",23.90,9.50,50.00,50.00,
"CA002101062","1985-01-25",23.00,5.00,0.00,0.00,
"CA002101062","1985-01-26",7.70,0.50,0.00,0.00,
"CA002101062","1985-01-27",1.40,-8.50,15.00,15.00,
"CA002101062","1985-01-28",8.60,-5.80,0.00,0.00,
"CA002101062","1985-01-29",12.20,5.90,0.00,0.00,
"CA002101062","1985-01-30",20.30,-2.20,5.00,5.00,
"CA002101062","1985-01-31",23.00,9.50,60.00,60.00,
"CA002101062","1985-02-01",10.40,2.30,0.00,0.00,
"CA002101062","1985-02-02",10.40,1.40,0.00,0.00,
"CA002101062","1985-02-03",14.00,9.50,50.00,50.00,
"CA002101062","1985-02-04",23.00,0.50,0.00,0.00,
"CA002101062","1985-02-05",7.70,2.30,20.00,20.00,
"CA002101062","1985-02-06",1.40,-5.80,0.00,0.00,
"CA002101062","1985-02-07",-9.40,-22.90,0.00,0.00,
"CA002101062","1985-02-08",-5.80,-22.90,0.00,0.00,
"CA002101062","1985-02-09",-13.90,-27.40,0.00,0.00,
"CA002101062","1985-02-10",-23.80,-40.00,0.00,0.00,
"CA002101062","1985-02-11",-45.40,-47.20,0.00,0.00,
"CA002101062","1985-02-12",-36.40,-50.80,0.00,0.00,
"CA002101062","1985-02-13",-18.40,-46.30,5.00,5.00,
"CA002101062","1985-02-14",-12.10,-33.70,35.00,35.00,
"CA002101062","1985-02-15",-12.10,-22.00,0.00,0.00,
"CA002101062","1985-02-16",-17.50,-28.30,0.00,0.00,
"CA002101062","1985-02-17",-14.80,-22.90,0.00,0.00,
"CA002101062","1985-02-18",-13.90,-29.20,0.00,0.00,
"CA002101062","1985-02-19",-15.70,-40.90,0.00,0.00,
"CA002101062","1985-02-20",-17.50,-37.30,16.00,16.00,
"CA002101062","1985-02-21",-18.40,-31.90,0.00,0.00,
"CA002101062","1985-02-22",-17.50,-34.60,0.00,0.00,
"CA002101062","1985-02-23",-18.40,-40.90,0.00,0.00,
"CA002101062","1985-02-24",-21.10,-38.20,0.00,0.00,
"CA002101062","1985-02-25",-7.60,-29.20,10.00,10.00,
"CA002101062","1985-02-26",6.80,-15.70,93.00,93.00,
"CA002101062","1985-02-27",21.20,-11.20,26.00,26.00,
"CA002101062","1985-02-28",15.80,-8.50,0.00,0.00,
"CA002101062","1985-03-01",2.30,-25.60,10.00,10.00,
"CA002101062","1985-03-02",16.70,-2.20,0.00,0.00,
"CA002101062","1985-03-03",2.30,-19.30,0.00,0.00,
"CA002101062","1985-03-04",2.30,-21.10,0.00,0.00,
"CA002101062","1985-03-05",7.70,-19.30,0.00,0.00,
"CA002101062","1985-03-06",12.20,5.00,80.00,80.00,
"CA002101062","1985-03-07",19.40,5.90,0.00,0.00,
"CA002101062","1985-03-08",26.60,5.00,0.00,0.00,
"CA002101062","1985-03-09",32.00,10.40,0.00,0.00,
"CA002101062","1985-03-10",35.60,1.40,0.00,0.00,
"CA002101062","1985-03-11",32.00,3.20,0.00,0.00,
"CA002101062","1985-03-12",34.70,18.50,15.00,15.00,
"CA002101062","1985-03-13",33.80,5.00,0.00,0.00,
"CA002101062","1985-03-14",30.20,-0.40,0.00,0.00,
"CA002101062","1985-03-15",23.00,-6.70,10.00,10.00,
"CA002101062","1985-03-16",30.20,12.20,0.00,0.00,
"CA002101062","1985-03-17",32.00,0.50,0.00,0.00,
"CA002101062","1985-03-18",39.20,16.70,0.00,0.00,
"CA002101062","1985-03-19",36.50,6.80,0.00,0.00,
"CA002101062","1985-03-20",33.80,-6.70,0.00,0.00,
"CA002101062","1985-03-21",33.80,-4.00,0.00,0.00,
"CA002101062","1985-03-22",35.60,-0.40,0.00,0.00,
"CA002101062","1985-03-23",35.60,5.90,0.00,0.00,
"CA002101062","1985-03-24",33.80,10.40,0.00,0.00,
"CA002101062","1985-03-25",37.40,8.60,0.00,0.00,
"CA002101062","1985-03-26",33.80,0.50,0.00,0.00,
"CA002101062","1985-03-27",32.00,-3.10,0.00,0.00,
"CA002101062","1985-03-28",25.70,-6.70,0.00,0.00,
"CA002101062","1985-03-29",27.50,-5.80,0.00,0.00,
"CA002101062","1985-03-30",30.20,-4.90,0.00,0.00,
"CA002101062","1985-03-31",12.20,3.20,25.00,25.00,
"CA002101062","1985-04-01",12.20,-3.10,10.00,10.00,
"CA002101062","1985-04-02",19.40,-4.90,0.00,0.00,
"CA002101062","1985-04-03",30.20,5.00,0.00,0.00,
"CA002101062","1985-04-04",26.60,14.90,25.00,25.00,
"CA002101062","1985-04-05",26.60,-11.20,0.00,0.00,
"CA002101062","1985-04-06",35.60,-4.00,0.00,0.00,
"CA002101062","1985-04-07",30.20,14.00,54.00,54.00,
"CA002101062","1985-04-08",42.80,26.60,0.00,0.00,
"CA002101062","1985-04-09",29.30,23.90,0.00,0.00,
"CA002101062","1985-04-10",27.50,-0.40,0.00,0.00,
"CA002101062","1985-04-11",35.60,-1.30,0.00,0.00,
"CA002101062","1985-04-12",23.00,5.90,58.00,58.00,
"CA002101062","1985-04-13",23.00,11.30,0.00,0.00,
"CA002101062","1985-04-14",33.80,-2.20,0.00,0.00,
"CA002101062","1985-04-15",34.70,6.80,0.00,0.00,
"CA002101062","1985-04-16",42.80,11.30,0.00,0.00,
"CA002101062","1985-04-17",39.20,15.80,0.00,0.00,
"CA002101062","1985-04-18",36.50,17.60,0.00,0.00,
"CA002101062","1985-04-19",36.50,8.60,0.00,0.00,
"CA002101062","1985-04-20",42.80,21.20,0.00,0.00,
"CA002101062","1985-04-21",45.50,15.80,0.00,0.00,
"CA002101062","1985-04-22",50.90,21.20,0.00,0.00,
"CA002101062","1985-04-23",48.20,18.50,0.00,0.00,
"CA002101062","1985-04-24",49.10,22.10,0.00,0.00,
"CA002101062","1985-04-25",45.50,23.00,115.00,115.00,
"CA002101062","1985-04-26",42.80,28.40,0.00,0.00,
"CA002101062","1985-04-27",41.00,22.10,0.00,0.00,
"CA002101062","1985-04-28",41.00,15.80,0.00,0.00,
"CA002101062","1985-04-29",41.00,27.50,15.00,15.00,
"CA002101062","1985-04-30",47.30,30.20,0.00,0.00,
"CA002101062","1985-08-01",67.10,48.20,0.00,0.00,
"CA002101062","1985-08-02",61.70,42.80,64.00,0.00,
"CA002101062","1985-08-03",68.90,42.80,0.00,0.00,
"CA002101062","1985-08-04",68.00,42.80,42.00,0.00,
"CA002101062","1985-08-05",70.70,44.60,0.00,0.00,
"CA002101062","1985-08-06",74.30,41.00,0.00,0.00,
"CA002101062","1985-08-07",78.80,46.40,22.00,0.00,
"CA002101062","1985-08-08",68.00,53.60,11.00,0.00,
"CA002101062","1985-08-09",70.70,33.80,0.00,0.00,
"CA002101062","1985-08-10",64.40,40.10,0.00,0.00,
"CA002101062","1985-08-11",66.20,44.60,0.00,0.00,
"CA002101062","1985-08-12",59.00,41.90,0.00,0.00,
"CA002101062","1985-08-13",59.00,47.30,171.00,0.00,
"CA002101062","1985-08-14",68.90,36.50,0.00,0.00,
"CA002101062","1985-08-15",66.20,50.90,0.00,0.00,
"CA002101062","1985-08-16",60.80,41.90,18.00,0.00,
"CA002101062","1985-08-17",60.80,35.60,18.00,0.00,
"CA002101062","1985-08-18",62.60,34.70,0.00,0.00,
"CA002101062","1985-08-19",59.90,40.10,0.00,0.00,
"CA002101062","1985-08-20",57.20,34.70,40.00,0.00,
"CA002101062","1985-08-21",54.50,46.40,60.00,0.00,
"CA002101062","1985-08-22",51.80,46.40,121.00,0.00,
"CA002101062","1985-08-23",61.70,42.80,0.00,0.00,
"CA002101062","1985-08-24",62.60,32.00,0.00,0.00,
"CA002101062","1985-08-25",59.00,34.70,0.00,0.00,
"CA002101062","1985-08-26",62.60,32.90,0.00,0.00,
"CA002101062","1985-08-27",59.00,41.00,0.00,0.00,
"CA002101062","1985-08-28",64.40,35.60,0.00,0.00,
"CA002101062","1985-08-29",59.00,36.50,0.00,0.00,
"CA002101062","1985-08-30",64.40,44.60,20.00,0.00,
"CA002101062","1985-08-31",64.40,38.30,0.00,0.00,
"CA002101062","1985-09-01",59.00,36.50,42.00,0.00,
"CA002101062","1985-09-02",59.00,45.50,0.00,0.00,
"CA002101062","1985-09-03",53.60,30.20,0.00,0.00,
"CA002101062","1985-09-04",56.30,34.70,0.00,0.00,
"CA002101062","1985-09-05",53.60,32.90,0.00,0.00,
"CA002101062","1985-09-06",50.00,24.80,0.00,0.00,
"CA002101062","1985-09-07",59.90,41.00,0.00,0.00,
"CA002101062","1985-09-08",60.80,37.40,0.00,0.00,
"CA002101062","1985-09-09",50.00,44.60,0.00,0.00,
"CA002101062","1985-09-10",50.00,32.90,0.00,0.00,
"CA002101062","1985-09-11",54.50,34.70,0.00,0.00,
"CA002101062","1985-09-12",57.20,28.40,0.00,0.00,
"CA002101062","1985-09-13",59.00,28.40,0.00,0.00,
"CA002101062","1985-09-14",50.00,28.40,92.00,0.00,
"CA002101062","1985-09-15",50.00,40.10,21.00,0.00,
"CA002101062","1985-09-16",41.00,35.60,0.00,0.00,
"CA002101062","1985-09-17",41.90,31.10,0.00,0.00,
"CA002101062","1985-09-18",47.30,20.30,0.00,0.00,
"CA002101062","1985-09-19",45.50,33.80,14.00,0.00,
"CA002101062","1985-09-20",41.00,34.70,0.00,0.00,
"CA002101062","1985-09-21",40.10,28.40,0.00,0.00,
"CA002101062","1985-09-22",41.90,21.20,46.00,0.00,
"CA002101062","1985-09-23",45.50,33.80,0.00,0.00,
"CA002101062","1985-09-24",41.00,29.30,121.00,0.00,
"CA002101062","1985-09-25",47.30,38.30,0.00,0.00,
"CA002101062","1985-09-26",42.80,18.50,0.00,0.00,
"CA002101062","1985-09-27",46.40,33.80,0.00,0.00,
"CA002101062","1985-09-28",51.80,35.60,20.00,0.00,
"CA002101062","1985-09-29",50.00,28.40,0.00,0.00,
"CA002101062","1985-09-30",48.20,26.60,0.00,0.00,
"CA002101062","1985-10-01",46.40,23.90,44.00,0.00,
"CA002101062","1985-10-02",41.90,35.60,49.00,0.00,
"CA002101062","1985-10-03",44.60,33.80,0.00,0.00,
"CA002101062","1985-10-04",38.30,29.30,0.00,0.00,
"CA002101062","1985-10-05",35.60,23.00,0.00,0.00,
"CA002101062","1985-10-06",39.20,23.00,0.00,0.00,
"CA002101062","1985-10-07",41.00,29.30,0.00,0.00,
"CA002101062","1985-10-08",41.00,28.40,30.00,0.00,
"CA002101062","1985-10-09",36.50,32.90,18.00,0.00,
"CA002101062","1985-10-10",34.70,32.00,15.00,0.00,
"CA002101062","1985-10-11",39.20,28.40,0.00,0.00,
"CA002101062","1985-10-12",35.60,28.40,0.00,0.00,
"CA002101062","1985-10-13",33.80,28.40,0.00,0.00,
"CA002101062","1985-10-14",34.70,23.90,0.00,0.00,
"CA002101062","1985-10-15",34.70,19.40,0.00,0.00,
"CA002101062","1985-10-16",32.00,25.70,0.00,0.00,
"CA002101062","1985-10-17",31.10,24.80,0.00,0.00,
"CA002101062","1985-10-18",23.90,19.40,0.00,0.00,
"CA002101062","1985-10-19",19.40,9.50,0.00,0.00,
"CA002101062","1985-10-20",14.90,2.30,0.00,0.00,
"CA002101062","1985-10-21",15.80,5.00,20.00,20.00,
"CA002101062","1985-10-22",7.70,5.00,10.00,10.00,
"CA002101062","1985-10-23",9.50,-7.60,12.00,12.00,
"CA002101062","1985-10-24",5.90,-4.00,0.00,0.00,
"CA002101062","1985-10-25",8.60,-1.30,0.00,0.00,
"CA002101062","1985-10-26",7.70,-10.30,10.00,10.00,
"CA002101062","1985-10-27",2.30,-8.50,0.00,0.00,
"CA002101062","1985-10-28",6.80,-5.80,10.00,10.00,
"CA002101062","1985-10-29",5.90,3.20,22.00,22.00,
"CA002101062","1985-10-30",5.00,1.40,13.00,13.00,
"CA002101062","1985-10-31",4.10,-6.70,0.00,0.00,
"CA002101062","1985-11-01",9.50,1.40,0.00,0.00,
"CA002101062","1985-11-02",23.90,6.80,60.00,60.00,
"CA002101062","1985-11-03",14.00,-0.40,0.00,0.00,
"CA002101062","1985-11-04",14.90,-2.20,0.00,0.00,
"CA002101062","1985-11-05",8.60,5.90,0.00,0.00,
"CA002101062","1985-11-06",8.60,5.00,0.00,0.00,
"CA002101062","1985-11-07",3.20,-15.70,0.00,0.00,
"CA002101062","1985-11-08",-22.00,-28.30,0.00,0.00,
"CA002101062","1985-11-09",-4.00,-33.70,0.00,0.00,
"CA002101062","1985-11-10",3.20,-28.30,26.00,26.00,
"CA002101062","1985-11-11",6.80,-4.90,41.00,41.00,
"CA002101062","1985-11-12",7.70,-2.20,32.00,32.00,
"CA002101062","1985-11-13",2.30,-14.80,0.00,0.00,
"CA002101062","1985-11-14",2.30,-12.10,0.00,0.00,
"CA002101062","1985-11-15",-12.10,-23.80,0.00,0.00,
"CA002101062","1985-11-16",-15.70,-36.40,95.00,95.00,
"CA002101062","1985-11-17",-8.50,-30.10,20.00,20.00,
"CA002101062","1985-11-18",-5.80,-22.90,0.00,0.00,
"CA002101062","1985-11-19",-7.60,-16.60,0.00,0.00,
"CA002101062","1985-11-20",-18.40,-23.80,0.00,0.00,
"CA002101062","1985-11-21",-21.10,-25.60,0.00,0.00,
"CA002101062","1985-11-22",-20.20,-29.20,0.00,0.00,
"CA002101062","1985-11-23",-9.40,-27.40,0.00,0.00,
"CA002101062","1985-11-24",-8.50,-13.00,0.00,0.00,
"CA002101062","1985-11-25",-7.60,-29.20,0.00,0.00,
"CA002101062","1985-11-26",-7.60,-29.20,0.00,0.00,
"CA002101062","1985-11-27",-32.80,-34.60,0.00,0.00,
"CA002101062","1985-11-28",-33.70,-37.30,0.00,0.00,
"CA002101062","1985-11-29",-32.80,-38.20,0.00,0.00,
"CA002101062","1985-11-30",-34.60,-38.20,0.00,0.00,
"CA002101062","1985-12-01",-35.50,-39.10,0.00,0.00,
"CA002101062","1985-12-02",-37.30,-40.00,0.00,0.00,
"CA002101062","1985-12-03",-38.20,-41.80,0.00,0.00,
"CA002101062","1985-12-04",-15.70,-43.60,0.00,0.00,
"CA002101062","1985-12-05",-5.80,-23.80,0.00,0.00,
"CA002101062","1985-12-06",-6.70,-8.50,0.00,0.00,
"CA002101062","1985-12-07",0.50,-7.60,0.00,0.00,
"CA002101062","1985-12-08",6.80,-7.60,0.00,0.00,
"CA002101062","1985-12-09",8.60,-0.40,15.00,15.00,
"CA002101062","1985-12-10",12.20,2.30,0.00,0.00,
"CA002101062","1985-12-11",14.00,5.90,0.00,0.00,
"CA002101062","1985-12-12",14.00,7.70,0.00,0.00,
"CA002101062","1985-12-13",13.10,7.70,0.00,0.00,
"CA002101062","1985-12-14",15.80,10.40,20.00,20.00,
"CA002101062","1985-12-15",15.80,13.10,21.00,21.00,
"CA002101062","1985-12-16",10.40,2.30,0.00,0.00,
"CA002101062","1985-12-17",11.30,6.80,0.00,0.00,
"CA002101062","1985-12-18",14.90,-4.00,12.00,12.00,
"CA002101062","1985-12-19",32.00,10.40,,0.00,
"CA002101062","1985-12-20",33.80,14.90,0.00,0.00,
"CA002101062","1985-12-21",26.60,23.00,25.00,25.00,
"CA002101062","1985-12-22",22.64,16.70,0.00,0.00,
"CA002101062","1985-12-23",37.40,16.70,0.00,0.00,
"CA002101062","1985-12-24",33.80,20.30,0.00,0.00,
"CA002101062","1985-12-25",19.40,-0.40,0.00,0.00,
"CA002101062","1985-12-26",-2.20,-4.00,0.00,0.00,
"CA002101062","1985-12-27",5.00,-5.80,0.00,0.00,
"CA002101062","1985-12-28",14.00,1.40,11.00,11.00,
"CA002101062","1985-12-29",14.00,10.40,0.00,0.00,
"CA002101062","1985-12-30",14.90,9.50,14.00,14.00,
"CA002101062","1985-12-31",14.90,10.40,44.00,44.00,
"CA002101062","1986-01-01",3.20,-0.40,69.00,69.00,
"CA002101062","1986-01-02",-3.10,-8.50,0.00,0.00,
"CA002101062","1986-01-03",7.70,-9.40,0.00,0.00,
"CA002101062","1986-01-04",11.30,-1.30,0.00,0.00,
"CA002101062","1986-01-05",4.10,1.40,0.00,0.00,
"CA002101062","1986-01-06",9.50,-1.30,93.00,93.00,
"CA002101062","1986-01-07",13.10,5.00,28.00,28.00,
"CA002101062","1986-01-08",14.00,6.80,0.00,0.00,
"CA002101062","1986-01-09",9.50,3.20,0.00,0.00,
"CA002101062","1986-01-10",11.30,5.90,11.00,11.00,